Location: Agendoh
(31.0664°N, 8.9343°W)
Time: 07:45:22
(UTC+00:00)

Alouette 2 Rocket - Pass Details

Date: 06 December 2021
Orbit: 501 x 2649 km, 79.8° (Epoch: 24 January)

Event Time Altitude Azimuth Distance (km) Brightness Sun altitude
Rises 06:43:32 0° 356° (N) 2,631 6.5 -8.0°
Reaches altitude 10° 06:45:38 10° 1° (N) 1,710 5.6 -7.6°
Maximum altitude 06:49:07 55° 80° (E) 627 4.0 -6.9°
Drops below altitude 10° 06:53:02 10° 159° (SSE) 1,929 6.8 -6.2°
Sets 06:55:32 0° 164° (SSE) 3,015 7.7 -5.7°
